TimeCST,TemperatureF,Dew PointF,Humidity,Sea Level PressureIn,VisibilityMPH,Wind Direction,Wind SpeedMPH,Gust SpeedMPH,PrecipitationIn,Events,Conditions,WindDirDegrees,DateUTC
12:54 AM,55.0,33.1,43,29.60,10.0,South,25.3,33.4,N/A,,Clear,180,2013-02-18 06:54:00
1:54 AM,55.9,35.1,45,29.57,10.0,South,29.9,38.0,N/A,,Clear,180,2013-02-18 07:54:00
2:54 AM,55.9,37.0,49,29.55,10.0,South,27.6,40.3,N/A,,Clear,180,2013-02-18 08:54:00
3:54 AM,55.0,39.0,55,29.54,10.0,South,26.5,35.7,N/A,,Clear,180,2013-02-18 09:54:00
4:54 AM,54.0,42.1,64,29.54,10.0,South,25.3,35.7,N/A,,Clear,180,2013-02-18 10:54:00
5:54 AM,53.1,43.0,69,29.53,10.0,South,24.2,35.7,N/A,,Clear,190,2013-02-18 11:54:00
6:54 AM,53.1,44.1,71,29.53,10.0,SSW,23.0,35.7,N/A,,Clear,200,2013-02-18 12:54:00
7:35 AM,51.8,44.6,76,29.55,10.0,SSW,27.6,35.7,N/A,,Mostly Cloudy,200,2013-02-18 13:35:00
7:54 AM,52.0,45.0,77,29.56,10.0,SSW,23.0,39.1,N/A,,Mostly Cloudy,210,2013-02-18 13:54:00
8:19 AM,48.2,35.6,62,29.58,10.0,WSW,26.5,33.4,N/A,,Scattered Clouds,240,2013-02-18 14:19:00
8:54 AM,46.9,28.9,50,29.61,10.0,WSW,19.6,-,N/A,,Clear,250,2013-02-18 14:54:00
9:54 AM,48.9,32.0,52,29.64,10.0,NW,25.3,31.1,N/A,,Clear,320,2013-02-18 15:54:00
10:54 AM,51.1,33.1,50,29.70,10.0,NNW,29.9,41.4,N/A,,Clear,340,2013-02-18 16:54:00
11:54 AM,48.0,30.9,52,29.78,10.0,NNW,35.7,43.7,N/A,,Overcast,340,2013-02-18 17:54:00
12:54 PM,52.0,30.9,45,29.79,10.0,NNW,25.3,38.0,N/A,,Partly Cloudy,340,2013-02-18 18:54:00
1:54 PM,54.0,30.0,40,29.82,10.0,NNW,28.8,36.8,N/A,,Clear,330,2013-02-18 19:54:00
2:54 PM,52.0,30.0,43,29.85,10.0,NNW,25.3,32.2,N/A,,Clear,330,2013-02-18 20:54:00
3:54 PM,53.1,27.0,37,29.87,10.0,NNW,25.3,33.4,N/A,,Partly Cloudy,340,2013-02-18 21:54:00
4:54 PM,51.1,25.0,36,29.91,10.0,NNW,21.9,29.9,N/A,,Clear,330,2013-02-18 22:54:00
5:54 PM,46.9,25.0,42,29.96,10.0,NNW,13.8,-,N/A,,Clear,340,2013-02-18 23:54:00
6:54 PM,39.9,24.1,53,30.02,10.0,NNW,6.9,-,N/A,,Clear,340,2013-02-19 00:54:00
7:54 PM,41.0,23.0,49,30.06,10.0,NNW,11.5,-,N/A,,Clear,340,2013-02-19 01:54:00
8:54 PM,32.0,21.9,66,30.11,10.0,NNW,5.8,-,N/A,,Clear,330,2013-02-19 02:54:00
9:54 PM,35.1,21.0,57,30.15,10.0,WNW,3.5,-,N/A,,Clear,300,2013-02-19 03:54:00
10:54 PM,30.9,21.0,67,30.16,10.0,North,5.8,-,N/A,,Clear,350,2013-02-19 04:54:00
11:54 PM,30.9,19.9,64,30.17,10.0,North,4.6,-,N/A,,Clear,10,2013-02-19 05:54:00